Location: Arthurs Seat
(13.1500°N, 59.6000°W)
Time: 18:22:58
(UTC+00:00)

CZ-2C R/B - Pass Details

Date: 25 August 2019
Orbit: 639 x 705 km, 98.4° (Epoch: 18 October)

Event Time Altitude Azimuth Distance (km) Brightness Sun altitude
Rises 22:58:12 0° 13° (NNE) 3,010 7.1 -11.3°
Reaches altitude 10° 23:00:27 10° 14° (NNE) 2,086 6.3 -11.9°
Maximum altitude 23:04:59 82° 101° (E) 667 3.6 -13.0°
Drops below altitude 10° 23:09:27 10° 190° (S) 2,047 6.2 -14.0°
Sets 23:11:39 0° 191° (S) 2,949 7.0 -14.5°
